Погода в Палецком

Россия / Новосибирская область     54°07′12″N   78°09′05″E
темп.,
°C
ветер,
м/с
пор.,
м/с
влажн.,
%
обл.,
%
осадки,
мм/ч
давл.,
гПа
погр.,
м
16 мая, пн
пн1601:00+17зюз512447 0.0 1012226
04:00+14юз345176 0.0 101353
07:00+14ююз375610 0.0 1013130
10:00+21юз693881 0.0 1013734
13:00+24з61038100 0.0 10122066
16:00+24юз683794 0.0 10111698
19:00+25юз6833100 0.0 10093125
22:00+17ю51068100 2.2 1010242
17 мая, вт
вт1701:00+15ю51276100 2.2 1009244
04:00+16ю6146917 0.0 1007271
07:00+17ю616575 0.0 1006349
10:00+24юз813355 0.0 1005794
13:00+28юз8132549 0.0 10052731
16:00+28зюз1013245 0.0 10052982
19:00+27зюз8122899 0.0 10052863
22:00+21сз8123876 0.0 1007561
18 мая, ср
ср1801:00+16зюз476595 0.3 1009159
04:00+15з3567100 0.1 1009100
07:00+15з256574 0.1 1010134
10:00+19зсз2243100 0.0 1012610
13:00+23зюз2330100 0.0 10121779
16:00+24з1228100 0.0 10111834
19:00+24вюв2330100 0.0 10091526
22:00+20вюв3844100 0.0 1008158
19 мая, чт
чт1901:00+18в51357100 0.4 1005296
04:00+20ююв71752100 0.1 1002499
07:00+19зюз61255100 0.1 1002441
10:00+19зюз912602 0.0 10041116
13:00+22юз1216355 0.0 10052718
16:00+19з1317355 0.0 10082364
19:00+19з9143568 0.0 10102324
22:00+17зюз713425 0.0 1012636
20 мая, пт
пт2001:00+14юз48434 0.0 1013151
04:00+13ююз51146100 0.0 1012211
07:00+14ююз6144889 0.0 1012388
10:00+19юз91537100 0.0 10111311
13:00+20з7114110 0.0 10121806
16:00+23з710363 0.0 10112059
19:00+23з693865 0.0 10112048
22:00+19ююв225135 0.0 101011